Regional Weather Roundup
Issued by NWS

Home | Current Version | Previous Version | Text Only | Print | Product List | Glossary Off
Versions: 1 2 3 4 5 6 7 8 9 10 11 12 13 14 15 16 17 18 19 20 21 22 23 24 25 26 27 28 29 30 31 32 33 34 35 36 37 38 39 40 41 42 43 44 45 46 47 48 49 50

000
ASUS43 KLSX 260310
RWRMO

WEATHER SUMMARY FOR MISSOURI
NATIONAL WEATHER SERVICE SPRINGFIELD MO
900 PM CST SAT FEB 25 2017

NOTE: "FAIR" INDICATES FEW OR NO CLOUDS BELOW 12,000 FEET WITH NO
       SIGNIFICANT WEATHER AND/OR OBSTRUCTIONS TO VISIBILITY.
       CURRENT SKY AND/OR WEATHER CONDITIONS ARE NOT AVAILABLE FOR
       CHILLICOTHE AND FARMINGTON.

MOZ001>031-035>038-043-044-053-054-260400-
...NORTHERN AND WESTERN MISSOURI...

CITY           SKY/WX    TMP DP  RH WIND       PRES   REMARKS
KANSAS CTY INT CLEAR     28  12  51 S10       30.03S WCI  19
KANSAS C DTWN  PTCLDY    38  10  31 S8        30.04F
LEE`S SUMMIT   CLEAR     36  11  35 S9        30.05S WCI  29
ST JOSEPH      PTCLDY    31  15  52 S6        30.01F WCI  25
CHILLICOTHE      N/A     26  18  71 CALM      30.06F
KIRKSVILLE     CLEAR     22  12  65 S6        30.07R WCI  14

$$
MOZ066>068-077>081-088>096-101>105-260400-
...SOUTHWEST MISSOURI...

CITY           SKY/WX    TMP DP  RH WIND       PRES   REMARKS
SPRINGFIELD    CLEAR     29  16  58 CALM      30.08S
JOPLIN         CLEAR     30  17  58 SE3       30.10R
BRANSON        PTCLDY    34  12  40 CALM      30.10S

$$
MOZ032>034-039>042-045>050-055>058-069>072-260400-
...CENTRAL MISSOURI...

CITY           SKY/WX    TMP DP  RH WIND       PRES   REMARKS
COLUMBIA       CLEAR     32  10  40 SE5       30.09F WCI  27
JEFFERSON CITY CLEAR     30  13  49 CALM      30.11S
ROLLA          CLEAR     25  13  60 E5        30.09S WCI  19
SEDALIA        PTCLDY    31  11  43 S6        30.09S WCI  25
WHITEMAN AFB   PTCLDY    31  11  43 S7        30.07S WCI  24
WARRENSBURG    CLEAR     32  14  47 S6        30.07S WCI  26
OSAGE BEACH    CLEAR     29  14  53 CALM      30.11S

$$
MOZ051-052-059>065-260400-
...EAST CENTRAL MISSOURI...

CITY           SKY/WX    TMP DP  RH WIND       PRES   REMARKS
ST LOUIS INTL  CLEAR     34  13  41 CALM      30.13R
SPIRIT OF STL  CLEAR     25  17  72 CALM      30.13S
ST CHARLES     CLEAR     25  12  58 CALM      30.13R

$$
MOZ072>076-082>087-097>100-106>115-260400-
...SOUTH CENTRAL AND SOUTHEAST MISSOURI...

CITY           SKY/WX    TMP DP  RH WIND       PRES   REMARKS
CAPE GIRARDEAU CLEAR     28  18  66 W3        30.15R
FARMINGTON     CLEAR     29  17  61 CALM      30.14R
POPLAR BLUFF   CLEAR     34  21  59 N3        30.15R
WEST PLAINS    CLEAR     30  17  58 CALM      30.11S

$$



USA.gov is the U.S. government's official web portal to all federal, state and local government web resources and services.